Location: Chillicothe
(39.7950°N, 93.5520°W)
Time: 18:52:21
(UTC-06:00)

BEESAT - Pass Details

Date: 25 November 2019
Orbit: 700 x 709 km, 98.6° (Epoch: 07 December)

Event Time Altitude Azimuth Distance (km) Brightness Sun altitude
Rises 19:01:35 0° 356° (N) 3,098 ? -24.5°
Reaches altitude 10° 19:04:29 10° 337° (NNW) 2,177 ? -25.0°
Maximum altitude 19:07:36 18° 296° (WNW) 1,714 ? -25.6°
Drops below altitude 10° 19:10:42 10° 255° (WSW) 2,171 ? -26.2°
Sets 19:13:36 0° 236° (WSW) 3,087 ? -26.8°
